Vorticity
1 1 -0 -1 0 1 1 2 2 1 1 3 2 5 6 6 3 7 8 13 9 5 6 7 9 7 6 6 6 8 6 5 2 9 8 7 11 6 9 3 4 7 5 2 1
0 1 2 1 1 1 2 3 3 3 3 3 3 4 5 6 8 4 3 8 13 11 10 8 12 8 9 8 7 6 5 7 -0 6 3 2 4 5 -1 2 6 10 8 8 8
4 5 5 6 5 7 7 7 6 7 8 7 6 9 7 4 4 21 19 7 14 17 16 17 14 12 8 10 5 7 5 12 11 6 8 1 6 7 10 5 9 9 9 9 7
7 9 9 10 9 9 9 9 9 11 10 10 10 7 7 7 12 -5 3 6 12 12 6 6 6 6 9 6 10 5 8 5 13 1 0 -3 1 1 1 1 4 11 7 3 4
9 9 8 9 10 10 10 9 8 8 8 9 9 9 6 7 7 5 10 12 13 11 9 9 7 9 7 12 16 8 10 10 16 18 10 7 10 10 9 12 11 6 4 3 5
11 11 12 11 11 10 10 11 10 9 8 7 7 7 8 3 15 9 6 6 10 10 13 10 5 5 3 12 -7 -9 24 1 6 0 -2 6 8 6 10 12 9 9 8 9 9
8 8 8 8 8 9 10 10 11 11 11 9 7 8 5 12 5 6 11 8 5 12 12 11 9 12 15 9 -1 9 -4 -1 -4 0 4 0 8 11 24 16 11 8 11 10 9
7 8 9 11 15 18 16 16 15 13 14 12 11 9 8 1 1 3 7 6 8 14 10 11 15 14 5 -4 -3 13 19 12 14 22 16 13 -1 6 -3 15 26 24 19 16 13
14 17 21 23 22 20 20 23 25 27 25 27 19 12 15 12 18 32 16 14 19 14 13 14 11 13 9 6 8 20 -9 -3 5 14 11 15 7 7 24 14 11 6 8 10 9
16 17 14 14 13 12 13 13 18 27 33 35 28 19 21 3 -6 -1 18 17 12 14 13 11 8 3 6 6 -17 5 19 9 13 5 14 1 -4 4 13 0 -4 4 5 4 4
15 10 7 8 11 11 12 13 20 30 9 6 -3 11 14 46 30 28 10 14 6 9 11 9 5 2 12 15 18 31 -32 -0 0 22 25 5 3 2 9 10 7 2 2 3 4
8 7 8 10 10 9 10 4 16 4 -0 19 14 4 -14 -2 -2 9 11 13 2 3 13 3 5 13 14 4 5 3 3 9 2 19 13 4 -2 3 9 9 11 7 6 4 2
5 7 9 9 10 9 17 7 14 17 11 16 39 43 21 -15 0 4 5 14 7 7 6 5 -29 22 26 0 6 13 9 3 3 -6 -6 2 20 42 39 36 34 13 5 4 5
6 9 9 9 12 11 10 8 19 18 25 33 34 21 48 39 -6 -11 4 22 9 9 21 15 13 -19 10 5 8 12 14 20 4 2 12 19 -1 -13 -7 -11 9 15 15 18 15
8 10 9 10 13 26 10 26 23 4 14 -5 7 3 4 41 16 70 8 4 8 -12 2 -12 28 18 -0 -1 10 7 10 13 12 11 2 5 5 30 6 9 14 11 18 23 20
11 13 11 8 20 17 18 37 11 13 7 7 8 4 26 29 -1 6 11 12 -1 17 17 13 17 17 18 18 24 9 4 2 14 16 16 30 -12 29 10 18 10 17 19 12 11
12 12 11 15 13 15 3 35 15 5 -16 -1 2 16 12 23 -8 19 8 -11 0 -2 10 -9 3 0 9 -0 5 2 6 8 12 2 1 20 20 -25 -2 -1 0 3 11 7 5
15 14 14 12 16 25 8 10 12 -2 -1 -7 3 56 5 0 23 14 5 15 10 3 51 10 43 6 26 7 -5 19 5 5 10 8 10 11 14 13 20 16 11 12 2 6 5
14 18 13 9 12 20 15 13 3 3 -10 -6 24 13 19 26 -8 9 17 23 13 10 -10 12 14 22 -12 22 7 29 11 -0 -7 15 5 11 16 3 4 3 11 15 7 1 1
12 16 21 15 15 7 13 14 9 4 7 26 16 6 1 5 32 -2 33 42 15 12 -3 7 9 9 4 21 10 -9 25 8 11 7 8 22 10 -18 22 13 14 4 -1 -2 -9
9 18 14 5 18 25 9 6 3 19 0 10 5 11 5 13 39 22 34 15 14 10 10 4 -6 16 7 13 20 2 0 0 6 -1 4 5 16 26 9 12 11 10 3 -8 -8
11 25 12 12 8 6 13 27 9 10 16 13 20 10 8 16 11 5 13 18 15 12 14 13 3 5 11 10 6 16 11 4 -14 22 2 5 9 -9 11 13 11 1 -2 3 3
9 21 11 -8 10 8 17 0 21 9 10 10 9 20 6 12 9 18 6 6 8 10 9 24 15 9 19 19 14 11 4 13 8 -5 9 -4 9 7 6 4 1 -6 -6 8 -8
13 12 12 -25 6 6 18 13 10 8 12 -3 16 13 8 10 6 4 12 13 9 6 4 11 9 -2 5 12 11 25 23 -1 2 2 2 -15 -21 -0 -12 -6 -2 -0 1 -1 26
10 1 11 -5 4 5 3 -18 23 18 0 12 12 4 17 13 18 12 6 16 9 8 6 4 4 6 3 4 10 11 4 18 10 4 -3 13 28 8 1 -1 -1 -3 18 22 12
6 8 8 18 18 3 -6 7 8 13 13 18 7 7 12 11 12 13 14 0 9 13 8 17 7 7 21 23 23 22 21 10 6 12 12 1 1 14 38 35 17 11 -1 12 14
6 11 8 10 3 10 -5 4 23 4 26 -3 12 10 15 10 5 6 7 6 3 2 5 15 9 6 15 4 0 35 37 40 27 17 13 10 9 15 9 7 6 14 12 17 12
Height
3120 3117 3114 3110 3108 3104 3101 3099 3096 3093 3090 3088 3085 3083 3080 3078 3076 3074 3074 3074 3074 3073 3073 3074 3075 3077 3078 3078 3078 3079 3079 3079 3082 3084 3084 3083 3086 3088 3088 3090 3091 3091 3091 3096 3096
3116 3112 3110 3106 3103 3100 3096 3092 3089 3086 3083 3080 3078 3076 3073 3070 3069 3068 3069 3066 3066 3067 3067 3068 3069 3071 3073 3073 3073 3073 3071 3074 3078 3078 3079 3080 3081 3082 3086 3086 3087 3086 3087 3091 3093
3110 3106 3102 3098 3095 3091 3088 3085 3081 3078 3075 3072 3070 3069 3066 3063 3061 3060 3061 3060 3060 3060 3060 3062 3062 3064 3068 3068 3067 3067 3065 3072 3072 3073 3074 3075 3078 3078 3081 3083 3081 3081 3083 3085 3088
3101 3097 3093 3088 3084 3082 3078 3076 3073 3069 3066 3064 3062 3060 3059 3057 3057 3053 3054 3054 3054 3055 3055 3056 3057 3057 3062 3062 3064 3063 3064 3066 3068 3067 3070 3071 3072 3073 3076 3081 3078 3077 3077 3080 3083
3093 3088 3082 3079 3075 3071 3068 3065 3063 3060 3057 3055 3053 3051 3050 3048 3049 3046 3047 3047 3047 3048 3050 3051 3052 3053 3055 3058 3060 3057 3059 3061 3062 3062 3063 3065 3067 3068 3067 3074 3074 3070 3073 3075 3077
3084 3079 3074 3069 3064 3060 3057 3054 3051 3049 3047 3045 3044 3042 3040 3039 3041 3040 3041 3041 3041 3042 3043 3044 3046 3048 3050 3052 3054 3054 3054 3055 3057 3057 3058 3059 3061 3059 3064 3067 3067 3066 3066 3070 3072
3076 3071 3065 3061 3055 3050 3047 3042 3040 3037 3036 3035 3033 3031 3028 3033 3033 3031 3032 3034 3033 3036 3037 3037 3039 3042 3045 3048 3048 3049 3050 3050 3052 3054 3053 3055 3052 3052 3058 3057 3059 3062 3061 3063 3065
3069 3063 3057 3051 3045 3039 3033 3029 3027 3025 3024 3022 3022 3020 3015 3025 3026 3023 3025 3026 3027 3028 3029 3030 3035 3038 3040 3043 3044 3046 3046 3044 3047 3049 3047 3050 3045 3049 3051 3052 3054 3056 3058 3059 3060
3061 3054 3048 3042 3035 3029 3023 3018 3015 3011 3009 3009 3009 3009 3008 3012 3014 3017 3017 3018 3021 3021 3023 3026 3029 3033 3036 3039 3042 3040 3039 3040 3043 3043 3043 3044 3042 3044 3045 3048 3051 3052 3053 3054 3054
3053 3047 3040 3035 3029 3023 3016 3011 3007 3002 2999 2998 3000 3003 3002 3004 3006 3008 3010 3011 3014 3016 3018 3023 3024 3027 3030 3033 3030 3035 3034 3036 3039 3041 3039 3039 3040 3041 3044 3045 3047 3048 3048 3049 3048
3047 3040 3034 3029 3023 3017 3011 3006 3003 2999 2995 2997 2996 2994 2997 2996 2998 3001 3005 3007 3009 3011 3012 3018 3019 3016 3024 3027 3030 3032 3032 3033 3036 3036 3037 3036 3035 3038 3040 3039 3040 3041 3042 3042 3041
3041 3035 3029 3024 3019 3013 3008 3002 3000 2996 2985 2990 2987 2986 2988 2992 2994 2998 3002 3005 3004 3004 3011 3014 3009 3016 3022 3024 3026 3027 3028 3030 3033 3034 3034 3032 3029 3030 3033 3033 3033 3034 3036 3036 3036
3037 3030 3024 3018 3015 3010 3003 2999 2996 2991 2984 2975 2978 2975 2981 2987 2987 2992 2998 3000 3001 3004 3007 3008 3010 3013 3016 3019 3023 3024 3024 3028 3031 3030 3030 3028 3022 3024 3023 3025 3027 3028 3030 3031 3030
3033 3026 3020 3012 3011 3003 3000 2995 2991 2988 2983 2976 2972 2972 2974 2977 2979 2987 2991 2998 2999 3002 3006 3007 3009 3013 3014 3015 3020 3022 3022 3025 3027 3028 3027 3025 3021 3019 3020 3020 3021 3023 3024 3025 3025
3029 3022 3015 3007 3001 2997 2994 2990 2988 2988 2989 2978 2974 2974 2973 2972 2976 2978 2987 2993 2995 2999 3003 3004 3004 3007 3010 3014 3018 3019 3020 3023 3025 3025 3023 3022 3025 3012 3014 3014 3016 3018 3019 3020 3020
3025 3018 3011 3006 3001 2994 2989 2985 2987 2989 2984 2977 2976 2974 2973 2973 2974 2978 2983 2985 2990 2995 2999 3002 3002 3006 3008 3011 3015 3016 3019 3020 3021 3021 3021 3015 3017 3009 3009 3011 3012 3015 3015 3016 3017
3023 3015 3008 3001 2997 2992 2988 2986 2987 2986 2982 2980 2975 2974 2974 2973 2974 2976 2977 2980 2985 2991 2994 2997 3000 3003 3006 3009 3011 3012 3015 3019 3023 3020 3018 3011 3013 3006 3008 3008 3010 3012 3013 3014 3014
3020 3013 3006 3000 2995 2990 2988 2988 2987 2984 2981 2979 2976 2972 2973 2975 2975 2975 2977 2979 2984 2988 2989 2993 3000 2999 3002 3004 3007 3008 3012 3012 3017 3020 3012 3011 3007 3004 3004 3005 3007 3009 3010 3011 3011
3017 3012 3005 2999 2993 2989 2989 2987 2987 2984 2983 2980 2977 2974 2973 2973 2975 2974 2975 2977 2980 2984 2988 2989 2995 2996 2999 3001 3005 3006 3008 3010 3010 3011 3011 3005 3003 3002 3002 3004 3005 3007 3008 3008 3007
3012 3009 3002 2997 2992 2989 2988 2987 2987 2985 2982 2981 2979 2978 2975 2973 2972 2969 2970 2974 2976 2981 2982 2986 2992 2996 2998 3000 3002 3003 3005 3007 3008 3016 3016 3000 2999 2997 2999 3001 3003 3004 3004 3004 3003
3012 3006 3002 2996 2993 2989 2989 2987 2985 2985 2984 2982 2980 2978 2976 2973 2965 2967 2964 2971 2975 2979 2982 2985 2989 2995 2997 2998 2999 3001 3001 3002 3004 3005 3008 3008 2999 2998 2999 3000 3001 3001 3001 3000 2999
3010 3006 3001 2997 2996 2991 2988 2986 2985 2984 2983 2981 2979 2978 2976 2973 2969 2966 2969 2972 2975 2978 2981 2984 2987 2992 2994 2994 2996 2997 2998 2999 3000 3002 3002 3002 2999 2996 2997 2998 2998 2999 2998 2996 2994
3007 3005 3000 2997 2992 2989 2988 2986 2984 2983 2982 2981 2980 2978 2977 2975 2974 2973 2974 2976 2977 2979 2980 2983 2986 2990 2992 2995 2994 2994 2995 2996 2997 2997 2998 3001 2996 2994 2994 2995 2996 2995 2993 2989 2987
3006 3003 2999 2996 2994 2991 2988 2987 2985 2984 2982 2981 2979 2978 2976 2975 2974 2975 2975 2977 2978 2979 2980 2983 2985 2987 2989 2989 2990 2991 2992 2992 2994 2994 2993 2991 2992 2992 2992 2991 2990 2988 2985 2983 2980
3006 3003 2999 2996 2993 2992 2989 2987 2983 2982 2982 2979 2978 2977 2976 2976 2976 2976 2977 2977 2979 2979 2981 2983 2984 2985 2985 2985 2986 2986 2987 2988 2987 2989 2988 2988 2987 2988 2987 2985 2984 2981 2979 2978 2976
3006 3003 2999 2996 2994 2991 2989 2986 2984 2982 2981 2979 2978 2976 2976 2976 2977 2978 2978 2978 2979 2979 2979 2981 2982 2982 2982 2981 2982 2982 2982 2982 2983 2983 2984 2984 2981 2985 2981 2979 2978 2976 2975 2974 2972
3003 3001 2997 2996 2993 2991 2989 2986 2983 2982 2981 2980 2979 2977 2976 2976 2976 2976 2976 2977 2977 2978 2979 2980 2980 2981 2980 2980 2979 2977 2976 2976 2977 2977 2979 2977 2978 2977 2975 2974 2973 2972 2971 2969 2967